Location: Unspecified
(0.0000°N, 0.0000°E)
Time: 13:36:28
(UTC+00:00)

Vanguard 2 - Pass Details

Date: 21 November 2019
Orbit: 553 x 2938 km, 32.9° (Epoch: 08 December)

Event Time Altitude Azimuth Distance (km) Brightness Sun altitude
Rises 23:57:42 0° 216° (SW) 5,754 12.2 -70.0°
Reaches altitude 10° 00:02:42 10° 201° (SSW) 5,106 11.8 -69.8°
Maximum altitude 00:13:58 23° 155° (SSE) 4,643 11.5 -69.0°
Drops below altitude 10° 00:26:28 10° 110° (ESE) 5,749 12.1 -67.8°
Sets 00:32:30 0° 97° (E) 6,640 12.5 -67.1°
